QPF
0.02 0.02 0.03 0.04 0.07 0.11 0.13 0.14 0.15 0.22 0.20 0.14 0.14 0.12 0.15 0.15 0.12 0.08 0.05 0.04 0.05 0.04 0.04 0.03 0.02 0.01 0.01 0.01 0.02 0.02 0.03 0.05 0.05 0.07 0.09 0.08 0.06 0.05 0.04 0.05 0.06 0.06 0.04
0.03 0.03 0.02 0.04 0.05 0.09 0.12 0.15 0.14 0.15 0.19 0.13 0.13 0.12 0.11 0.10 0.10 0.11 0.07 0.04 0.03 0.03 0.04 0.04 0.02 0.02 0.02 0.02 0.01 0.01 0.02 0.03 0.03 0.04 0.04 0.05 0.06 0.04 0.04 0.04 0.05 0.04 0.05
0.03 0.03 0.03 0.05 0.05 0.08 0.11 0.12 0.09 0.10 0.13 0.10 0.10 0.10 0.10 0.10 0.10 0.09 0.08 0.04 0.03 0.02 0.02 0.04 0.03 0.02 0.02 0.01 0.01 0.02 0.03 0.02 0.02 0.02 0.02 0.02 0.02 0.03 0.03 0.02 0.02 0.03 0.05
0.03 0.02 0.03 0.04 0.05 0.06 0.08 0.07 0.06 0.09 0.10 0.08 0.06 0.06 0.05 0.10 0.09 0.05 0.05 0.05 0.04 0.03 0.03 0.04 0.05 0.04 0.02 0.01 0.01 0.02 0.02 0.01 0.01 0.02 0.01 0.01 0.00 0.01 0.01 0.03 0.04 0.03 0.04
0.02 0.02 0.02 0.03 0.04 0.04 0.05 0.05 0.06 0.07 0.07 0.06 0.06 0.06 0.05 0.08 0.09 0.07 0.07 0.07 0.06 0.05 0.04 0.05 0.04 0.03 0.02 0.01 0.02 0.02 0.01 0.01 0.01 0.01 0.01 0.01 0.01 0.00 0.01 0.02 0.03 0.04 0.03
0.05 0.06 0.09 0.05 0.05 0.05 0.05 0.06 0.06 0.06 0.07 0.06 0.06 0.05 0.04 0.05 0.07 0.06 0.06 0.05 0.06 0.06 0.05 0.05 0.05 0.04 0.04 0.02 0.02 0.03 0.03 0.02 0.02 0.02 0.01 0.01 0.01 0.01 0.01 0.01 0.01 0.02 0.02
0.07 0.08 0.09 0.06 0.04 0.04 0.05 0.06 0.07 0.07 0.07 0.07 0.06 0.05 0.04 0.05 0.05 0.06 0.06 0.05 0.04 0.03 0.03 0.04 0.04 0.03 0.05 0.05 0.04 0.03 0.03 0.03 0.02 0.02 0.02 0.01 0.01 0.01 0.01 0.00 0.00 0.01 0.01
0.07 0.10 0.05 0.04 0.03 0.05 0.06 0.06 0.08 0.09 0.10 0.10 0.09 0.08 0.07 0.06 0.06 0.07 0.07 0.06 0.04 0.03 0.03 0.03 0.04 0.04 0.05 0.05 0.05 0.05 0.05 0.05 0.04 0.03 0.02 0.02 0.01 0.01 0.01 0.01 0.01 0.01 0.01
0.07 0.09 0.04 0.03 0.03 0.06 0.06 0.06 0.08 0.11 0.12 0.11 0.11 0.09 0.08 0.06 0.07 0.06 0.06 0.04 0.04 0.05 0.05 0.06 0.07 0.08 0.09 0.09 0.09 0.08 0.07 0.06 0.05 0.04 0.03 0.02 0.01 0.01 0.01 0.02 0.03 0.02 0.01
0.05 0.06 0.06 0.04 0.04 0.05 0.05 0.06 0.09 0.11 0.11 0.12 0.12 0.10 0.09 0.08 0.07 0.06 0.05 0.04 0.04 0.04 0.05 0.07 0.08 0.08 0.08 0.08 0.10 0.10 0.10 0.09 0.07 0.06 0.04 0.03 0.03 0.02 0.01 0.02 0.03 0.03 0.02
0.05 0.05 0.05 0.05 0.04 0.03 0.05 0.08 0.10 0.09 0.10 0.10 0.09 0.09 0.10 0.08 0.07 0.05 0.05 0.04 0.05 0.06 0.07 0.07 0.08 0.09 0.10 0.10 0.10 0.11 0.11 0.11 0.11 0.09 0.07 0.04 0.04 0.04 0.02 0.02 0.01 0.02 0.02
0.05 0.09 0.08 0.05 0.04 0.02 0.03 0.04 0.07 0.08 0.09 0.09 0.10 0.09 0.07 0.06 0.06 0.05 0.06 0.07 0.09 0.11 0.10 0.09 0.09 0.10 0.12 0.13 0.13 0.13 0.12 0.10 0.09 0.08 0.08 0.07 0.07 0.06 0.04 0.03 0.02 0.02 0.03
0.09 0.09 0.08 0.06 0.05 0.05 0.04 0.03 0.03 0.07 0.09 0.08 0.07 0.08 0.08 0.06 0.06 0.07 0.10 0.12 0.14 0.15 0.13 0.13 0.12 0.12 0.13 0.13 0.12 0.13 0.12 0.11 0.11 0.11 0.11 0.11 0.11 0.08 0.06 0.05 0.05 0.04 0.04
0.10 0.07 0.05 0.04 0.06 0.08 0.05 0.03 0.03 0.03 0.04 0.04 0.05 0.07 0.06 0.05 0.06 0.08 0.09 0.11 0.11 0.11 0.10 0.12 0.13 0.13 0.13 0.12 0.12 0.12 0.12 0.12 0.14 0.15 0.16 0.16 0.15 0.12 0.09 0.07 0.05 0.04 0.04
0.12 0.07 0.04 0.04 0.04 0.05 0.04 0.03 0.02 0.02 0.02 0.03 0.04 0.06 0.06 0.05 0.05 0.06 0.07 0.08 0.09 0.10 0.10 0.11 0.12 0.12 0.13 0.11 0.10 0.11 0.13 0.15 0.15 0.13 0.13 0.14 0.13 0.11 0.08 0.06 0.05 0.04 0.04
0.08 0.06 0.05 0.04 0.04 0.04 0.04 0.03 0.02 0.02 0.02 0.02 0.02 0.03 0.03 0.03 0.04 0.07 0.09 0.08 0.07 0.08 0.08 0.09 0.09 0.09 0.08 0.08 0.08 0.09 0.10 0.11 0.11 0.10 0.10 0.10 0.11 0.11 0.09 0.06 0.06 0.04 0.03
0.07 0.07 0.07 0.05 0.05 0.05 0.04 0.03 0.04 0.04 0.03 0.03 0.03 0.02 0.02 0.02 0.05 0.08 0.07 0.06 0.07 0.08 0.08 0.08 0.09 0.10 0.11 0.12 0.10 0.09 0.09 0.10 0.09 0.09 0.10 0.09 0.10 0.11 0.10 0.08 0.06 0.05 0.05
0.08 0.08 0.09 0.08 0.06 0.05 0.05 0.04 0.04 0.04 0.05 0.05 0.04 0.03 0.03 0.03 0.04 0.08 0.08 0.07 0.08 0.08 0.10 0.10 0.10 0.09 0.09 0.10 0.11 0.10 0.09 0.09 0.09 0.11 0.11 0.09 0.10 0.09 0.09 0.07 0.06 0.06 0.06
0.13 0.11 0.10 0.09 0.06 0.06 0.05 0.04 0.04 0.04 0.05 0.05 0.04 0.04 0.05 0.05 0.06 0.07 0.06 0.05 0.05 0.06 0.07 0.07 0.07 0.07 0.08 0.11 0.09 0.09 0.08 0.09 0.09 0.10 0.10 0.09 0.08 0.09 0.09 0.07 0.07 0.06 0.05
0.09 0.09 0.07 0.07 0.05 0.06 0.06 0.04 0.04 0.04 0.05 0.05 0.04 0.03 0.05 0.05 0.05 0.06 0.06 0.06 0.06 0.06 0.05 0.05 0.06 0.07 0.07 0.10 0.10 0.09 0.08 0.08 0.08 0.07 0.07 0.08 0.07 0.07 0.07 0.06 0.06 0.05 0.05
0.08 0.06 0.05 0.05 0.04 0.05 0.05 0.05 0.04 0.04 0.04 0.04 0.04 0.03 0.03 0.04 0.06 0.05 0.06 0.04 0.03 0.04 0.04 0.04 0.05 0.05 0.05 0.06 0.06 0.06 0.05 0.05 0.05 0.04 0.04 0.05 0.06 0.05 0.05 0.05 0.04 0.04 0.03
0.12 0.10 0.05 0.05 0.05 0.06 0.05 0.05 0.04 0.03 0.03 0.03 0.03 0.04 0.04 0.05 0.04 0.03 0.03 0.02 0.02 0.02 0.02 0.02 0.01 0.02 0.02 0.03 0.04 0.05 0.05 0.04 0.03 0.04 0.04 0.05 0.05 0.04 0.04 0.03 0.03 0.02 0.02
0.13 0.10 0.06 0.06 0.07 0.09 0.07 0.06 0.05 0.04 0.03 0.02 0.03 0.04 0.04 0.05 0.04 0.03 0.02 0.02 0.01 0.01 0.02 0.01 0.01 0.02 0.03 0.04 0.05 0.05 0.06 0.05 0.05 0.06 0.07 0.06 0.05 0.03 0.02 0.02 0.01 0.01 0.01
0.09 0.08 0.06 0.05 0.06 0.06 0.06 0.06 0.06 0.05 0.04 0.03 0.03 0.05 0.05 0.05 0.05 0.03 0.02 0.02 0.02 0.02 0.02 0.01 0.02 0.02 0.02 0.02 0.03 0.03 0.04 0.05 0.06 0.07 0.08 0.07 0.06 0.05 0.05 0.04 0.03 0.02 0.02
0.04 0.04 0.04 0.04 0.03 0.03 0.04 0.06 0.06 0.05 0.05 0.04 0.04 0.04 0.04 0.04 0.04 0.04 0.04 0.03 0.03 0.04 0.04 0.03 0.03 0.03 0.02 0.04 0.06 0.07 0.06 0.04 0.03 0.03 0.03 0.03 0.04 0.06 0.07 0.06 0.03 0.02 0.02
0.03 0.03 0.03 0.03 0.03 0.03 0.04 0.05 0.05 0.06 0.06 0.05 0.04 0.04 0.04 0.04 0.04 0.04 0.05 0.05 0.04 0.04 0.03 0.03 0.03 0.04 0.04 0.04 0.03 0.03 0.04 0.04 0.04 0.03 0.03 0.03 0.03 0.03 0.03 0.03 0.02 0.02 0.01
MSLP
1009.08 1009.57 1010.07 1010.55 1011.01 1011.45 1011.89 1012.32 1012.76 1013.19 1013.61 1014.00 1014.34 1014.63 1014.86 1015.05 1015.21 1015.35 1015.52 1015.71 1015.96 1016.25 1016.58 1016.95 1017.33 1017.72 1018.10 1018.48 1018.86 1019.24 1019.62 1020.00 1020.37 1020.70 1020.98 1021.19 1021.31 1021.33 1021.28 1021.16 1021.02 1020.88 1020.79
1009.28 1009.82 1010.34 1010.80 1011.21 1011.57 1011.91 1012.27 1012.66 1013.09 1013.53 1013.97 1014.37 1014.71 1014.96 1015.13 1015.23 1015.30 1015.37 1015.49 1015.67 1015.94 1016.28 1016.68 1017.12 1017.56 1017.99 1018.40 1018.78 1019.14 1019.50 1019.85 1020.20 1020.54 1020.85 1021.10 1021.28 1021.37 1021.36 1021.28 1021.14 1020.97 1020.82
1009.48 1010.06 1010.60 1011.04 1011.39 1011.67 1011.93 1012.21 1012.55 1012.96 1013.43 1013.91 1014.37 1014.76 1015.05 1015.22 1015.29 1015.30 1015.31 1015.35 1015.48 1015.71 1016.04 1016.46 1016.92 1017.39 1017.84 1018.26 1018.63 1018.97 1019.30 1019.63 1019.97 1020.33 1020.67 1020.98 1021.24 1021.40 1021.47 1021.43 1021.31 1021.13 1020.93
1009.63 1010.24 1010.79 1011.21 1011.52 1011.73 1011.91 1012.11 1012.40 1012.79 1013.26 1013.78 1014.30 1014.74 1015.07 1015.27 1015.34 1015.32 1015.28 1015.27 1015.35 1015.54 1015.85 1016.26 1016.73 1017.20 1017.66 1018.07 1018.42 1018.74 1019.04 1019.35 1019.69 1020.06 1020.45 1020.83 1021.16 1021.41 1021.55 1021.57 1021.47 1021.29 1021.05
1009.68 1010.32 1010.87 1011.29 1011.56 1011.72 1011.83 1011.96 1012.19 1012.54 1013.01 1013.55 1014.11 1014.60 1014.98 1015.22 1015.31 1015.30 1015.24 1015.21 1015.25 1015.41 1015.69 1016.08 1016.53 1016.99 1017.43 1017.82 1018.16 1018.45 1018.73 1019.03 1019.37 1019.76 1020.18 1020.61 1021.01 1021.33 1021.54 1021.61 1021.55 1021.38 1021.12
1009.63 1010.28 1010.85 1011.27 1011.53 1011.65 1011.70 1011.77 1011.93 1012.24 1012.67 1013.21 1013.78 1014.31 1014.74 1015.01 1015.15 1015.16 1015.12 1015.09 1015.12 1015.26 1015.52 1015.88 1016.30 1016.74 1017.16 1017.53 1017.84 1018.11 1018.38 1018.67 1019.00 1019.40 1019.84 1020.30 1020.74 1021.12 1021.38 1021.50 1021.48 1021.32 1021.07
1009.48 1010.14 1010.74 1011.18 1011.44 1011.54 1011.55 1011.56 1011.67 1011.90 1012.29 1012.79 1013.34 1013.88 1014.33 1014.64 1014.82 1014.87 1014.87 1014.85 1014.89 1015.03 1015.27 1015.61 1016.00 1016.42 1016.81 1017.16 1017.46 1017.72 1017.98 1018.26 1018.59 1018.98 1019.42 1019.89 1020.34 1020.74 1021.03 1021.19 1021.21 1021.09 1020.87
1009.26 1009.95 1010.59 1011.06 1011.34 1011.45 1011.44 1011.41 1011.44 1011.60 1011.91 1012.34 1012.84 1013.35 1013.79 1014.12 1014.32 1014.42 1014.45 1014.47 1014.53 1014.67 1014.90 1015.23 1015.61 1016.00 1016.38 1016.72 1017.02 1017.28 1017.54 1017.81 1018.13 1018.51 1018.93 1019.38 1019.82 1020.21 1020.51 1020.69 1020.75 1020.70 1020.54
1009.04 1009.77 1010.45 1010.98 1011.30 1011.42 1011.41 1011.34 1011.32 1011.40 1011.61 1011.94 1012.35 1012.79 1013.18 1013.49 1013.70 1013.82 1013.88 1013.93 1014.01 1014.16 1014.40 1014.72 1015.09 1015.48 1015.86 1016.21 1016.51 1016.79 1017.06 1017.34 1017.66 1018.01 1018.41 1018.82 1019.22 1019.58 1019.87 1020.08 1020.18 1020.20 1020.14
1008.90 1009.67 1010.40 1010.97 1011.34 1011.49 1011.49 1011.41 1011.33 1011.33 1011.44 1011.66 1011.96 1012.29 1012.60 1012.86 1013.04 1013.15 1013.22 1013.28 1013.38 1013.54 1013.78 1014.10 1014.47 1014.86 1015.25 1015.62 1015.96 1016.27 1016.57 1016.87 1017.19 1017.53 1017.90 1018.27 1018.63 1018.96 1019.23 1019.45 1019.61 1019.70 1019.76
1008.92 1009.71 1010.46 1011.07 1011.47 1011.67 1011.69 1011.61 1011.50 1011.43 1011.45 1011.55 1011.73 1011.93 1012.14 1012.31 1012.43 1012.50 1012.55 1012.61 1012.70 1012.87 1013.10 1013.41 1013.78 1014.18 1014.59 1014.99 1015.38 1015.74 1016.09 1016.43 1016.78 1017.13 1017.48 1017.82 1018.14 1018.44 1018.71 1018.94 1019.14 1019.33 1019.50
1009.09 1009.88 1010.63 1011.25 1011.67 1011.90 1011.95 1011.88 1011.77 1011.67 1011.61 1011.62 1011.68 1011.77 1011.86 1011.92 1011.96 1011.97 1011.98 1012.01 1012.08 1012.22 1012.45 1012.75 1013.11 1013.51 1013.94 1014.38 1014.81 1015.24 1015.65 1016.06 1016.45 1016.83 1017.19 1017.53 1017.84 1018.12 1018.39 1018.64 1018.89 1019.15 1019.43
1009.40 1010.15 1010.86 1011.44 1011.86 1012.10 1012.19 1012.16 1012.07 1011.97 1011.89 1011.83 1011.81 1011.80 1011.78 1011.75 1011.70 1011.64 1011.59 1011.57 1011.61 1011.72 1011.91 1012.18 1012.53 1012.93 1013.37 1013.83 1014.32 1014.81 1015.30 1015.78 1016.24 1016.67 1017.08 1017.44 1017.77 1018.06 1018.34 1018.61 1018.91 1019.24 1019.60
1009.76 1010.42 1011.05 1011.57 1011.96 1012.21 1012.33 1012.36 1012.32 1012.26 1012.20 1012.13 1012.07 1012.00 1011.91 1011.80 1011.68 1011.55 1011.45 1011.38 1011.37 1011.44 1011.58 1011.82 1012.13 1012.50 1012.94 1013.42 1013.94 1014.49 1015.05 1015.61 1016.16 1016.67 1017.14 1017.56 1017.93 1018.26 1018.56 1018.87 1019.20 1019.58 1019.99
1010.09 1010.63 1011.13 1011.56 1011.90 1012.15 1012.31 1012.41 1012.45 1012.47 1012.47 1012.45 1012.40 1012.32 1012.20 1012.06 1011.89 1011.72 1011.57 1011.47 1011.41 1011.43 1011.53 1011.72 1011.98 1012.31 1012.72 1013.20 1013.74 1014.32 1014.94 1015.58 1016.21 1016.81 1017.37 1017.87 1018.31 1018.69 1019.04 1019.38 1019.73 1020.13 1020.57
1010.28 1010.68 1011.06 1011.39 1011.67 1011.91 1012.11 1012.29 1012.45 1012.58 1012.68 1012.74 1012.75 1012.71 1012.61 1012.47 1012.30 1012.13 1011.96 1011.84 1011.76 1011.74 1011.79 1011.92 1012.13 1012.41 1012.77 1013.22 1013.74 1014.34 1015.00 1015.70 1016.40 1017.10 1017.74 1018.33 1018.85 1019.30 1019.69 1020.07 1020.43 1020.83 1021.25
1010.30 1010.58 1010.83 1011.06 1011.30 1011.54 1011.79 1012.06 1012.32 1012.58 1012.80 1012.98 1013.09 1013.12 1013.09 1013.00 1012.87 1012.72 1012.58 1012.46 1012.38 1012.34 1012.36 1012.44 1012.59 1012.81 1013.11 1013.51 1014.00 1014.58 1015.25 1015.98 1016.74 1017.51 1018.24 1018.91 1019.50 1020.02 1020.46 1020.86 1021.23 1021.60 1021.98
1010.16 1010.34 1010.51 1010.68 1010.88 1011.13 1011.44 1011.79 1012.17 1012.55 1012.89 1013.19 1013.40 1013.54 1013.59 1013.58 1013.52 1013.44 1013.35 1013.28 1013.22 1013.20 1013.21 1013.26 1013.36 1013.53 1013.76 1014.09 1014.53 1015.07 1015.72 1016.45 1017.24 1018.05 1018.84 1019.57 1020.23 1020.80 1021.28 1021.68 1022.04 1022.38 1022.71
1009.93 1010.08 1010.21 1010.35 1010.56 1010.83 1011.19 1011.61 1012.08 1012.56 1013.01 1013.40 1013.72 1013.95 1014.10 1014.18 1014.22 1014.22 1014.22 1014.22 1014.22 1014.24 1014.27 1014.32 1014.40 1014.51 1014.70 1014.96 1015.33 1015.82 1016.42 1017.13 1017.91 1018.73 1019.54 1020.31 1021.00 1021.60 1022.09 1022.50 1022.83 1023.12 1023.38
1009.73 1009.90 1010.04 1010.21 1010.44 1010.75 1011.16 1011.63 1012.16 1012.70 1013.21 1013.67 1014.06 1014.37 1014.60 1014.77 1014.90 1015.01 1015.11 1015.20 1015.29 1015.38 1015.46 1015.54 1015.62 1015.72 1015.86 1016.07 1016.38 1016.81 1017.35 1018.01 1018.75 1019.53 1020.33 1021.10 1021.79 1022.39 1022.88 1023.27 1023.57 1023.81 1024.00
1009.65 1009.89 1010.10 1010.33 1010.61 1010.96 1011.39 1011.90 1012.44 1013.00 1013.53 1014.02 1014.44 1014.79 1015.09 1015.33 1015.55 1015.76 1015.96 1016.17 1016.36 1016.54 1016.70 1016.83 1016.94 1017.05 1017.18 1017.36 1017.62 1017.99 1018.46 1019.05 1019.72 1020.45 1021.20 1021.93 1022.59 1023.16 1023.62 1023.98 1024.24 1024.43 1024.56
1009.76 1010.11 1010.41 1010.72 1011.06 1011.45 1011.90 1012.40 1012.93 1013.46 1013.97 1014.44 1014.85 1015.22 1015.55 1015.85 1016.14 1016.44 1016.75 1017.06 1017.36 1017.65 1017.90 1018.11 1018.28 1018.43 1018.57 1018.75 1018.98 1019.29 1019.69 1020.20 1020.79 1021.44 1022.11 1022.76 1023.36 1023.88 1024.30 1024.61 1024.83 1024.98 1025.06
1010.07 1010.53 1010.94 1011.33 1011.73 1012.15 1012.60 1013.07 1013.56 1014.03 1014.49 1014.90 1015.29 1015.64 1015.98 1016.31 1016.67 1017.04 1017.44 1017.85 1018.26 1018.65 1019.01 1019.31 1019.56 1019.76 1019.94 1020.12 1020.34 1020.61 1020.96 1021.39 1021.89 1022.44 1023.01 1023.57 1024.09 1024.53 1024.89 1025.16 1025.34 1025.45 1025.51
1010.52 1011.09 1011.60 1012.06 1012.50 1012.94 1013.38 1013.81 1014.24 1014.64 1015.02 1015.38 1015.71 1016.04 1016.38 1016.74 1017.13 1017.57 1018.04 1018.54 1019.04 1019.53 1019.98 1020.36 1020.69 1020.96 1021.19 1021.40 1021.61 1021.86 1022.16 1022.52 1022.92 1023.37 1023.84 1024.29 1024.71 1025.08 1025.38 1025.60 1025.75 1025.85 1025.89
1011.03 1011.68 1012.26 1012.79 1013.26 1013.71 1014.12 1014.51 1014.88 1015.22 1015.53 1015.83 1016.13 1016.43 1016.76 1017.14 1017.57 1018.05 1018.58 1019.14 1019.71 1020.27 1020.79 1021.25 1021.65 1021.98 1022.25 1022.49 1022.72 1022.95 1023.21 1023.50 1023.82 1024.17 1024.54 1024.89 1025.22 1025.51 1025.75 1025.94 1026.07 1026.16 1026.22
1011.52 1012.22 1012.85 1013.41 1013.91 1014.36 1014.76 1015.11 1015.43 1015.72 1015.99 1016.25 1016.53 1016.82 1017.16 1017.55 1018.00 1018.52 1019.08 1019.68 1020.30 1020.90 1021.46 1021.97 1022.41 1022.79 1023.10 1023.36 1023.60 1023.82 1024.04 1024.28 1024.53 1024.80 1025.07 1025.34 1025.59 1025.81 1026.01 1026.17 1026.30 1026.41 1026.49
Thickness
5794 5792 5788 5784 5777 5771 5766 5763 5759 5757 5754 5750 5748 5745 5743 5744 5744 5745 5746 5746 5746 5745 5745 5744 5743 5742 5740 5739 5738 5737 5734 5732 5732 5728 5726 5728 5730 5729 5729 5728 5727 5726 5725
5789 5787 5784 5780 5775 5770 5766 5762 5759 5757 5754 5753 5750 5748 5746 5745 5745 5745 5745 5746 5745 5744 5744 5743 5742 5741 5740 5738 5737 5736 5733 5732 5732 5727 5720 5717 5719 5726 5730 5729 5728 5728 5726
5789 5785 5782 5778 5773 5769 5766 5763 5759 5757 5755 5754 5750 5748 5745 5743 5741 5742 5743 5744 5744 5744 5744 5743 5741 5740 5739 5737 5736 5736 5733 5729 5730 5731 5724 5715 5711 5717 5725 5728 5729 5728 5727
5791 5785 5781 5776 5773 5770 5767 5764 5760 5757 5755 5754 5750 5746 5743 5740 5740 5742 5742 5743 5744 5743 5743 5742 5741 5740 5739 5737 5737 5737 5735 5732 5728 5729 5730 5728 5725 5717 5716 5723 5727 5728 5728
5791 5785 5781 5777 5774 5771 5767 5764 5761 5757 5756 5754 5751 5747 5744 5743 5742 5742 5741 5741 5742 5742 5742 5741 5740 5739 5738 5737 5737 5736 5735 5733 5730 5728 5728 5727 5726 5724 5718 5715 5720 5724 5727
5789 5784 5780 5776 5772 5770 5767 5764 5760 5757 5756 5754 5751 5748 5745 5743 5741 5740 5739 5739 5740 5741 5741 5741 5740 5739 5738 5737 5736 5735 5734 5733 5731 5730 5729 5726 5724 5722 5719 5715 5716 5717 5723
5787 5781 5776 5772 5770 5768 5766 5763 5760 5757 5756 5754 5751 5749 5747 5744 5742 5741 5739 5739 5738 5739 5740 5741 5739 5739 5738 5737 5736 5734 5733 5732 5731 5729 5728 5727 5726 5726 5723 5718 5715 5715 5719
5785 5781 5777 5774 5771 5768 5765 5762 5760 5757 5755 5753 5751 5749 5748 5745 5743 5742 5741 5740 5740 5740 5740 5740 5739 5738 5737 5736 5735 5733 5732 5731 5730 5729 5727 5726 5726 5726 5724 5720 5716 5711 5711
5784 5781 5778 5775 5771 5768 5765 5763 5759 5756 5755 5753 5751 5749 5747 5745 5743 5742 5741 5740 5741 5741 5740 5739 5738 5737 5736 5735 5733 5731 5730 5729 5728 5726 5725 5724 5724 5724 5723 5721 5719 5711 5704
5782 5780 5777 5774 5772 5769 5766 5763 5760 5757 5755 5754 5752 5750 5747 5746 5744 5742 5740 5740 5740 5740 5739 5737 5736 5735 5734 5733 5731 5729 5728 5726 5724 5723 5721 5720 5720 5720 5719 5718 5716 5714 5707
5780 5777 5775 5773 5771 5769 5766 5763 5760 5756 5754 5753 5752 5749 5747 5746 5744 5741 5740 5740 5739 5738 5736 5735 5734 5732 5730 5729 5728 5726 5725 5722 5720 5719 5718 5716 5716 5714 5714 5713 5711 5709 5706
5780 5777 5774 5771 5768 5766 5764 5761 5759 5756 5755 5753 5751 5748 5746 5744 5742 5740 5739 5738 5737 5735 5734 5733 5731 5729 5727 5726 5724 5722 5721 5718 5716 5714 5713 5711 5711 5709 5708 5707 5705 5703 5701
5777 5773 5770 5768 5766 5764 5762 5759 5758 5755 5754 5752 5749 5746 5744 5742 5739 5738 5736 5735 5734 5732 5730 5729 5727 5725 5724 5722 5721 5719 5716 5713 5711 5709 5707 5705 5705 5702 5701 5700 5698 5696 5695
5775 5771 5766 5766 5765 5763 5761 5758 5756 5755 5753 5750 5746 5743 5741 5739 5736 5734 5732 5731 5730 5728 5726 5724 5723 5721 5719 5718 5716 5713 5710 5707 5704 5702 5700 5699 5698 5695 5694 5692 5690 5688 5684
5771 5771 5767 5764 5763 5760 5758 5756 5754 5752 5750 5747 5743 5740 5738 5736 5733 5730 5728 5726 5725 5723 5721 5719 5717 5716 5714 5712 5710 5706 5703 5700 5696 5694 5692 5691 5690 5689 5687 5684 5681 5678 5674
5769 5768 5766 5762 5760 5758 5756 5754 5751 5749 5747 5743 5739 5737 5734 5731 5728 5725 5723 5720 5718 5716 5714 5712 5710 5708 5707 5704 5702 5700 5695 5692 5689 5686 5683 5681 5680 5679 5677 5674 5672 5669 5664
5767 5764 5762 5760 5758 5757 5755 5751 5749 5746 5742 5738 5735 5732 5729 5725 5722 5719 5715 5712 5710 5708 5705 5703 5702 5700 5697 5696 5694 5691 5688 5683 5680 5677 5675 5672 5669 5667 5665 5661 5659 5656 5652
5765 5763 5760 5757 5756 5754 5752 5749 5745 5741 5737 5732 5729 5726 5723 5719 5716 5712 5708 5705 5703 5700 5697 5694 5692 5690 5688 5687 5684 5681 5678 5673 5670 5667 5664 5661 5657 5656 5653 5649 5645 5641 5638
5763 5761 5759 5755 5751 5748 5746 5743 5739 5735 5730 5726 5723 5721 5718 5714 5709 5705 5701 5698 5695 5691 5688 5685 5683 5681 5678 5676 5675 5672 5667 5663 5658 5656 5653 5650 5647 5644 5641 5637 5632 5628 5624
5759 5756 5753 5750 5745 5742 5740 5736 5731 5727 5723 5720 5717 5714 5711 5707 5703 5699 5694 5691 5687 5683 5679 5676 5673 5671 5668 5666 5664 5662 5658 5652 5647 5644 5641 5638 5635 5632 5629 5625 5620 5615 5610
5750 5749 5744 5740 5738 5735 5733 5726 5722 5718 5716 5714 5711 5707 5703 5700 5696 5691 5687 5683 5679 5674 5670 5666 5662 5659 5657 5655 5653 5651 5647 5643 5638 5633 5628 5625 5623 5620 5616 5613 5608 5604 5599
5740 5739 5735 5731 5729 5727 5724 5718 5712 5710 5708 5706 5702 5698 5694 5692 5687 5682 5677 5673 5670 5665 5660 5656 5651 5647 5645 5644 5641 5639 5636 5633 5628 5622 5617 5613 5610 5607 5604 5600 5596 5592 5587
5730 5728 5725 5720 5717 5716 5714 5709 5705 5702 5699 5695 5690 5687 5683 5680 5676 5672 5668 5663 5660 5656 5650 5646 5641 5636 5633 5631 5630 5628 5624 5621 5616 5611 5606 5602 5598 5594 5590 5586 5582 5579 5574
5719 5717 5714 5710 5707 5705 5703 5701 5697 5694 5690 5685 5679 5675 5672 5668 5663 5660 5657 5654 5649 5645 5640 5636 5630 5625 5622 5619 5617 5614 5611 5608 5603 5598 5594 5590 5586 5581 5577 5572 5568 5564 5560
5707 5706 5703 5700 5697 5695 5692 5690 5687 5684 5679 5674 5669 5664 5660 5656 5651 5646 5642 5641 5638 5636 5631 5626 5622 5617 5611 5608 5607 5604 5600 5596 5591 5586 5582 5577 5571 5566 5562 5557 5553 5549 5546
5697 5694 5692 5689 5687 5684 5681 5679 5677 5674 5669 5663 5658 5654 5649 5644 5640 5635 5628 5625 5624 5622 5619 5615 5611 5606 5603 5599 5596 5592 5589 5585 5581 5576 5569 5562 5557 5552 5547 5543 5539 5535 5531